Wind_Speed
14 13 15 3 4 4 5 8 6 2 6 6 9 16 12 9 3 5 15 29 35 33 27 23 21 18 16 14 14 15 15 13 14 13 13 12 12 11 9 9 8 7 6 6 7 7 6 7 8
14 15 2 1 3 1 6 5 6 7 5 10 18 11 8 5 4 16 13 26 29 30 26 23 20 18 16 14 15 15 15 14 14 13 14 13 12 11 9 9 8 6 5 5 6 5 5 5 5
17 10 2 4 3 5 4 7 7 6 8 6 6 9 5 7 3 3 27 24 23 25 25 23 20 18 16 15 14 14 14 14 13 13 14 13 12 10 10 9 9 8 6 5 4 4 3 2 2
7 2 4 2 8 12 10 7 6 5 5 7 8 10 5 5 7 15 25 26 29 23 22 23 20 18 17 16 14 13 13 13 13 13 14 12 11 10 9 10 9 8 7 6 5 3 3 2 1
5 1 1 3 10 10 13 3 5 4 6 6 6 6 5 4 15 25 26 32 31 24 20 21 20 18 17 16 15 14 13 13 13 13 13 11 10 10 10 10 9 8 8 7 6 4 3 2 2
3 2 2 5 8 7 6 3 4 4 3 4 8 7 4 16 22 21 26 25 22 21 19 21 19 18 17 16 16 15 14 13 13 12 11 10 10 10 9 9 9 9 9 8 7 6 5 4 4
4 2 4 6 9 12 9 4 5 4 7 4 11 6 4 8 20 22 23 22 18 14 18 21 19 18 18 17 16 15 15 14 13 12 11 10 9 9 9 9 9 9 9 9 8 8 7 7 6
1 3 3 4 6 7 9 7 6 7 4 6 4 7 6 13 21 23 23 19 16 13 16 19 18 17 17 16 16 15 14 14 13 12 11 11 9 9 8 8 9 10 10 10 10 10 10 10 9
1 2 3 5 1 8 8 9 10 8 3 6 4 4 12 32 28 27 24 22 20 17 17 17 18 17 16 16 15 13 12 10 10 8 7 8 7 7 8 9 9 10 9 9 9 10 12 12 12
4 4 6 7 5 5 8 8 8 7 8 6 11 14 31 29 28 19 18 19 24 22 21 18 19 18 15 16 15 13 12 12 11 8 8 8 7 8 10 11 11 10 10 11 10 10 9 8 8
5 7 7 13 5 8 9 8 6 7 6 6 12 19 19 26 24 22 18 21 24 24 23 22 22 18 16 16 18 15 14 12 11 10 9 8 10 10 10 8 8 8 7 7 5 6 6 4 4
5 8 6 6 7 7 9 7 7 7 7 8 9 20 20 18 20 25 24 26 29 27 25 24 23 22 22 17 16 17 17 14 12 11 9 8 9 9 9 8 10 10 9 9 7 4 4 7 4
6 5 9 12 11 11 12 12 8 9 12 10 7 19 17 14 14 19 25 30 32 32 29 28 26 24 19 21 19 21 20 18 16 13 10 9 7 6 6 9 9 9 9 8 7 7 3 1 1
8 12 12 10 11 9 13 8 5 8 9 12 12 16 17 18 20 20 23 27 32 34 33 27 25 25 22 22 22 21 19 16 13 12 15 13 10 7 4 4 5 6 5 5 4 4 5 5 3
12 14 17 15 9 12 11 13 15 12 11 11 11 11 16 17 24 23 28 25 35 37 34 30 27 25 22 22 21 20 19 17 15 12 13 15 13 13 9 8 11 9 5 4 4 3 4 3 2
7 6 6 3 10 10 8 19 10 12 11 14 14 12 17 17 21 27 33 31 35 40 36 30 25 21 19 19 19 18 17 16 14 13 15 15 14 15 8 12 11 8 6 5 4 3 6 4 3
5 5 9 10 7 10 7 13 9 8 8 9 8 14 9 18 17 28 31 37 38 40 35 29 25 21 17 16 17 17 18 16 13 12 13 14 14 13 13 14 11 9 6 7 7 3 3 2 3
5 6 8 8 9 14 9 9 8 8 7 6 8 8 10 13 19 27 33 40 40 41 37 30 24 19 16 16 16 17 16 15 13 12 12 13 15 13 13 10 11 8 8 6 6 5 3 2 2
11 14 16 15 10 12 10 12 9 8 5 9 9 8 8 10 12 27 30 40 41 43 40 34 29 23 21 17 17 16 15 16 15 13 11 13 15 13 11 12 12 10 9 5 5 7 4 3 5
13 14 14 6 10 13 15 19 8 8 9 7 11 13 11 8 7 8 26 36 40 42 43 39 34 31 26 22 16 16 16 14 14 11 10 11 14 15 13 14 13 10 9 8 8 8 7 6 8
10 8 6 8 12 7 9 12 7 8 11 11 16 9 6 8 7 8 18 28 34 37 44 43 39 36 30 24 20 18 18 16 13 11 11 9 11 14 14 14 13 13 12 11 10 9 11 9 9
6 7 10 11 9 5 7 9 3 9 7 16 16 16 15 19 18 9 10 21 32 33 32 34 35 31 26 22 23 28 29 22 14 15 12 10 10 12 13 12 15 13 12 13 13 11 10 13 10
6 5 5 5 4 7 3 5 3 7 4 14 14 14 13 15 14 14 6 11 18 29 31 31 29 27 24 24 22 27 24 22 17 15 15 13 11 11 12 14 15 15 14 13 13 12 13 14 13
4 4 6 5 0 6 11 10 6 3 9 12 12 13 13 13 15 20 18 25 26 24 25 23 23 26 24 25 18 26 22 17 20 22 21 17 14 12 13 13 13 14 14 14 15 14 14 14 13
5 4 2 2 1 7 2 6 7 10 13 14 12 9 8 8 13 14 12 14 22 22 22 22 22 22 26 26 23 22 21 18 27 28 25 21 19 18 16 16 16 16 15 14 14 14 14 14 14
9 7 4 5 4 4 5 5 3 10 11 10 10 8 9 10 8 9 9 10 16 21 23 24 24 18 21 25 25 20 18 18 27 30 26 24 24 22 18 17 17 17 16 15 15 15 15 14 16
7 8 8 3 3 3 4 3 3 4 7 6 7 8 7 8 8 10 9 5 5 18 22 26 27 24 18 18 22 23 18 22 27 26 24 25 24 22 19 19 17 17 17 17 16 17 18 15 16
2 6 1 3 4 5 4 6 4 6 6 6 9 9 7 5 8 8 9 13 4 5 17 22 20 19 17 13 16 21 21 19 23 26 25 29 29 27 24 20 19 18 18 18 18 18 18 18 15
2 4 3 4 5 4 1 3 6 7 6 4 3 0 5 5 6 6 6 12 15 5 5 12 15 13 11 10 13 18 16 19 20 25 26 29 28 24 21 20 20 19 17 18 19 19 18 18 14
3 1 6 4 4 3 4 5 11 9 6 1 5 3 3 6 7 7 7 9 14 13 4 7 15 17 17 14 14 15 17 17 20 24 25 26 25 24 22 21 18 17 18 18 18 19 17 19 18
Wind_Direction
313 310 311 294 39 77 268 270 223 26 55 79 66 83 95 54 21 166 133 135 143 149 152 152 149 145 141 136 138 147 151 153 154 153 153 150 145 144 143 142 137 130 122 110 100 92 83 71 68
309 322 245 264 105 315 277 266 95 76 91 71 103 111 54 61 37 127 115 134 146 147 153 153 150 150 146 140 139 145 150 154 158 160 161 159 155 157 158 159 152 145 139 128 116 104 92 76 66
307 277 68 151 183 207 257 343 107 76 55 90 103 58 88 122 103 85 139 134 143 148 154 154 156 155 151 147 145 148 153 158 163 166 169 165 165 167 168 171 165 157 158 149 140 126 109 90 73
312 47 332 98 263 264 228 262 125 107 68 82 105 77 66 63 134 137 143 136 143 150 156 157 158 158 157 153 151 154 157 161 164 169 172 171 173 174 178 178 179 175 171 168 168 149 153 162 157
282 350 271 248 261 273 289 238 60 42 151 163 99 130 92 61 147 145 129 147 145 149 154 162 162 162 161 158 158 158 159 162 166 171 176 175 180 184 186 187 189 188 183 184 189 198 219 210 229
335 117 2 268 285 290 317 160 99 21 105 151 92 109 116 151 147 153 137 140 145 149 157 164 162 164 165 165 167 167 165 165 169 175 180 181 187 190 193 198 202 204 199 201 205 218 227 242 252
174 72 244 298 300 304 326 345 47 30 2 272 133 92 120 173 166 146 139 139 143 153 160 161 159 167 170 172 175 174 173 173 175 178 181 185 193 200 203 210 217 221 219 214 218 226 237 243 246
317 121 277 277 282 294 358 6 18 30 318 339 98 137 168 192 155 140 134 141 146 160 160 164 165 166 170 172 178 179 182 183 181 187 196 196 202 211 216 230 233 236 239 235 233 234 239 246 253
276 9 266 254 31 306 0 4 335 327 17 41 56 118 140 162 150 142 139 139 147 159 164 162 163 165 169 172 172 175 172 174 176 180 185 174 190 210 206 224 235 239 242 253 255 248 239 243 252
150 166 243 245 335 328 327 13 321 346 330 79 83 99 134 140 145 151 155 155 160 163 171 169 169 167 170 176 171 168 164 159 159 156 161 170 187 200 214 220 228 235 239 245 250 257 265 259 252
249 224 250 278 327 350 316 323 301 317 311 286 164 152 159 152 157 161 176 170 171 176 176 182 177 177 177 164 163 162 167 167 169 185 188 200 213 216 223 216 215 220 228 241 233 235 228 236 251
311 288 289 279 308 314 297 286 297 293 256 309 162 170 164 167 169 172 177 172 175 178 182 184 183 179 172 172 164 165 170 171 177 188 191 211 230 230 228 227 216 205 195 190 192 148 211 199 156
298 288 291 288 283 272 275 271 248 270 293 308 332 161 176 171 175 180 182 173 174 178 184 184 180 179 176 172 171 160 162 165 163 178 185 183 206 218 228 227 231 227 222 218 215 215 204 213 203
303 311 306 294 287 291 300 283 310 272 272 285 288 166 175 174 178 179 197 172 169 176 177 179 182 180 174 177 173 170 169 168 179 181 180 172 188 190 180 210 183 150 167 172 166 214 224 212 211
325 314 307 286 294 279 266 270 255 255 249 249 259 178 183 185 176 184 200 172 168 173 170 173 180 186 180 177 175 174 177 189 194 195 185 186 175 176 174 176 164 145 179 197 175 193 187 175 190
318 294 279 123 257 257 178 261 265 243 225 237 240 245 185 187 185 186 197 171 171 168 168 168 176 179 181 182 185 182 180 189 192 188 182 184 186 182 163 183 179 188 203 203 176 182 189 162 156
235 262 265 295 266 269 190 273 217 232 257 253 235 238 190 186 187 188 186 171 171 168 165 163 167 174 177 177 174 171 170 179 184 181 179 177 174 168 178 190 190 179 191 209 198 146 188 153 197
230 248 284 290 303 318 327 309 297 263 277 255 281 264 201 177 193 187 181 169 166 169 167 162 165 170 169 172 171 169 170 170 178 184 177 178 171 169 187 188 162 157 173 180 180 156 132 125 287
256 266 273 281 296 327 310 299 298 301 340 330 306 264 227 200 205 190 172 160 159 163 161 161 159 169 174 172 166 172 171 169 172 179 186 179 173 165 180 168 154 165 173 153 153 153 131 50 358
252 265 275 289 333 319 316 301 295 304 299 286 275 267 228 235 204 175 154 155 154 158 160 163 169 173 179 184 184 187 185 181 184 192 190 188 178 165 161 159 157 166 169 144 126 142 118 84 47
267 268 279 304 322 325 327 305 318 325 321 357 4 308 328 244 232 140 154 156 152 155 163 169 174 176 178 182 179 189 187 180 170 183 187 195 181 176 172 172 160 154 159 143 130 127 121 128 81
270 288 314 321 295 306 11 296 327 292 306 60 43 41 39 32 33 28 152 147 157 162 158 160 169 173 177 179 188 189 178 170 184 192 192 185 188 181 171 163 162 150 148 137 139 132 113 134 124
276 34 338 307 0 327 255 270 129 304 352 72 53 51 38 39 37 29 139 115 114 143 149 160 167 175 181 184 195 184 181 189 195 192 184 187 189 185 173 168 167 162 156 147 142 131 121 119 116
62 26 327 309 177 278 240 220 303 306 127 85 73 57 50 41 32 38 86 104 106 136 142 151 169 181 188 190 195 189 187 189 180 179 180 185 182 175 170 166 172 165 164 155 150 145 132 120 117
136 109 298 337 164 241 287 241 222 93 82 84 74 54 48 51 53 46 63 102 126 139 158 177 183 182 189 194 195 193 195 200 194 189 185 183 181 180 176 173 168 159 156 152 148 145 139 133 126
181 168 170 204 204 265 345 265 119 95 93 95 80 61 41 63 62 65 49 81 159 175 185 190 194 187 190 195 199 196 204 213 200 196 191 192 189 187 182 174 175 168 158 152 147 140 131 131 120
184 202 209 357 9 27 224 356 244 109 80 68 68 54 44 69 71 72 59 56 27 209 199 196 199 198 196 197 204 207 208 209 198 199 200 191 186 182 177 176 174 166 157 156 147 138 128 127 126
106 147 75 85 200 218 234 207 186 66 64 65 36 3 346 123 87 75 82 62 360 18 221 205 197 195 202 212 211 206 213 216 198 193 194 183 179 179 179 176 169 165 162 154 149 138 134 131 133
132 163 188 169 160 183 304 265 169 114 83 339 133 267 352 113 105 105 88 80 63 73 125 189 192 180 185 209 214 209 208 198 198 193 181 175 171 174 176 178 173 162 159 157 149 141 143 129 132
51 354 165 143 255 217 151 250 178 142 156 105 33 299 16 154 161 156 154 112 75 55 138 185 191 200 208 208 203 202 198 192 181 174 169 168 168 172 170 172 170 163 156 157 155 139 140 132 133
Height
780 778 777 779 810 810 813 786 756 747 745 734 730 747 771 773 780 808 786 779 782 787 793 796 798 802 804 807 809 811 814 816 818 820 822 824 825 827 829 830 831 833 834 836 836 837 838 838 838
779 777 776 781 816 827 811 763 764 749 738 730 742 751 764 786 772 779 783 784 785 787 792 797 799 802 805 807 808 811 814 817 819 821 822 824 825 827 829 831 832 834 835 836 837 838 839 839 840
778 779 786 798 812 820 804 762 754 742 732 736 748 750 762 781 774 775 779 783 786 789 793 796 799 802 805 809 811 812 814 817 819 821 823 824 826 827 829 831 832 833 835 837 838 839 839 840 841
777 779 781 804 806 781 772 759 744 744 736 733 747 771 769 771 772 775 781 783 784 789 792 794 799 802 805 807 811 813 815 817 819 822 824 825 827 828 830 831 833 833 835 837 838 839 839 840 841
775 781 805 806 794 772 752 740 734 743 742 740 744 772 777 773 774 776 780 781 783 789 792 795 798 802 805 807 810 812 815 817 820 822 824 825 827 828 829 831 832 834 834 836 838 839 840 840 841
787 783 813 818 794 766 752 735 735 739 739 738 753 766 779 776 776 777 779 782 786 788 792 795 798 802 805 808 810 812 814 817 820 822 824 825 827 828 830 832 833 834 834 835 837 838 839 840 840
790 802 809 801 791 770 755 735 743 744 746 747 736 771 779 776 778 778 779 781 785 789 792 795 797 800 803 806 810 812 814 816 819 821 823 825 827 829 829 831 833 834 834 834 836 837 838 839 839
783 793 797 793 791 789 756 748 742 744 748 732 737 771 783 773 778 780 781 785 786 791 792 794 798 800 803 806 809 812 814 816 818 820 821 822 825 827 829 830 832 833 834 834 835 835 836 837 838
772 805 812 796 781 779 758 762 748 738 743 743 747 752 753 765 775 781 783 787 790 792 793 795 797 801 803 806 808 811 813 816 817 818 820 821 822 825 826 828 830 832 833 834 834 834 834 835 837
787 807 798 775 772 776 767 766 763 755 753 756 763 759 759 765 770 779 781 783 787 792 794 795 797 799 802 805 807 810 812 814 815 817 819 821 822 824 825 827 828 829 831 832 832 833 833 834 835
778 794 778 770 767 769 769 763 756 762 761 750 761 760 759 760 765 772 780 782 784 790 793 794 796 799 800 803 805 808 810 813 815 816 818 820 821 822 824 825 826 827 829 830 831 830 831 832 834
788 775 772 770 764 768 771 759 761 758 755 744 749 751 754 758 759 763 770 776 781 786 791 793 795 797 800 803 804 806 809 811 813 815 817 819 821 821 822 824 826 826 827 828 829 829 831 831 833
783 776 769 765 764 763 760 764 762 757 746 742 741 751 755 758 761 765 766 771 778 783 787 791 794 796 798 800 802 805 808 809 812 814 816 817 820 820 821 822 824 825 826 827 828 829 829 830 831
779 775 772 766 766 760 765 762 759 752 745 744 740 748 750 750 753 758 764 767 773 778 783 789 793 794 797 797 800 802 805 807 808 811 813 815 818 819 820 820 822 824 824 825 826 827 828 829 830
780 784 773 768 765 763 758 765 762 747 744 746 744 744 746 747 749 752 756 762 767 773 779 785 789 794 794 796 797 800 802 804 807 810 812 814 816 817 818 819 821 822 824 824 825 825 826 827 828
792 787 792 765 760 755 764 769 751 739 741 742 740 737 740 742 743 746 749 756 764 769 774 782 789 794 795 797 798 800 801 803 805 807 808 811 813 815 817 816 818 820 821 824 824 825 825 826 827
796 809 792 776 753 753 758 759 741 729 733 737 735 731 735 735 739 740 743 748 757 766 774 780 787 794 797 799 800 801 802 802 804 806 807 808 812 814 813 814 817 819 819 822 824 824 825 826 826
800 799 790 786 764 753 760 761 744 732 733 734 734 731 730 733 732 732 736 741 750 760 768 777 785 794 799 801 802 803 805 805 806 805 806 809 811 812 814 815 815 818 818 820 822 823 825 825 825
787 788 786 773 758 760 762 757 749 736 734 736 733 732 729 724 720 723 729 736 745 755 764 770 780 790 797 800 803 806 807 807 806 806 807 807 809 811 811 813 815 815 817 819 820 823 824 825 825
779 783 781 767 757 759 760 755 748 740 737 733 731 725 727 724 720 722 727 732 738 747 756 763 770 778 788 796 802 806 808 809 809 810 810 810 810 811 811 811 811 813 815 817 818 820 822 825 825
777 781 777 776 765 764 766 760 753 740 734 734 733 721 722 720 716 719 726 731 738 744 750 755 763 770 779 788 794 801 806 808 808 810 811 814 814 812 810 810 813 812 811 813 816 817 817 821 824
782 764 763 769 776 798 775 788 760 750 745 748 748 746 744 738 729 724 727 730 734 742 751 759 766 774 781 788 792 793 795 800 805 808 811 814 815 815 813 813 812 813 813 813 814 815 816 817 820
771 762 769 768 782 787 784 789 764 749 752 752 753 751 750 744 741 735 735 741 746 749 755 763 771 776 780 785 788 791 795 799 800 805 808 811 814 816 814 813 812 812 813 814 815 815 815 815 817
759 768 772 773 782 807 780 779 780 759 755 755 753 751 749 748 746 738 736 746 753 760 764 769 774 776 781 784 786 789 792 796 800 800 803 808 811 814 814 813 812 812 812 813 813 814 814 816 817
762 777 806 811 810 805 765 770 765 755 753 753 754 755 752 751 751 752 755 757 759 762 766 768 771 772 778 783 783 786 789 791 793 798 798 803 807 809 811 811 811 812 813 813 813 814 816 815 816
765 775 800 803 810 791 767 780 771 749 747 748 750 755 756 757 757 758 761 763 765 765 765 768 771 772 774 778 781 784 787 789 789 792 794 798 802 806 809 810 811 811 813 815 813 813 816 819 818
762 776 770 784 794 819 789 772 762 752 754 754 752 754 757 758 759 760 763 765 765 768 768 767 769 771 775 776 779 781 785 786 787 792 794 795 800 805 808 810 811 812 813 813 815 814 815 818 820
752 755 786 798 809 808 781 773 775 770 766 761 764 767 762 759 760 763 766 769 768 767 768 769 771 772 775 778 779 781 783 785 786 789 791 794 797 801 805 809 811 812 813 813 814 816 817 817 822
763 770 769 776 790 805 798 787 771 770 764 764 765 763 763 761 761 762 764 765 766 768 768 770 771 773 774 776 779 780 783 783 784 787 788 792 797 802 807 810 812 812 814 815 815 815 817 817 823
755 760 769 800 790 799 804 796 760 765 761 760 764 760 758 757 758 759 759 759 762 765 768 769 770 770 770 771 775 778 780 780 782 785 788 791 796 801 803 808 814 814 815 817 817 817 818 817 823